Location: La Sioule Rivi�re
(46.3664°N, 3.3197°E)
Time: 13:05:23
(UTC+00:00)

H-2A R/B - Pass Details

Date: 29 October 2020
Orbit: 733 x 837 km, 98.2° (Epoch: 23 November)

Event Time Altitude Azimuth Distance (km) Brightness Sun altitude
Exits shadow 19:37:07 - 196° (SSW) 2,963 5.1 -31.6°
Reaches altitude 10° 19:38:38 10° 203° (SSW) 2,432 4.7 -31.9°
Maximum altitude 19:43:26 32° 265° (W) 1,404 3.8 -32.7°
Drops below altitude 10° 19:48:18 10° 328° (NNW) 2,460 5.1 -33.5°
Sets 19:50:56 0° 338° (NNW) 3,396 5.8 -33.9°
